CZ-6A DEB, 56616

Orbit data source: Space-Track

CZ-6A DEB, 56616 is space debris in SSO originally from a launch on Fri, 11 Nov 2022 UTC launched from the Taiyaun Space Center, China (TSC). Debris objects in space refer to the collection of defunct objects orbiting the Earth. Examples of debris include non-operational satellites, rocket bodies, and fragments generated from explosions, collisions, or faulty payload assembly.

Loading next visibility...
Identifier
56616, 2022-151AEQ
Orbit
SSO
Country
Flag of CNCN / PRC
Related business
Manufacturer
SAST
Mission
Spacecraft
Bus & Motor
Unknown
Mass
Unknown
Launch date (UTC)
2022-11-11 (3 years ago)
Launch vehicle
Unknown
Launch site
Taiyaun Space Center, China (TSC)
Object type
Payload
Rocket body
Debris
Shape & HBR
Unknown shape, 0.1 m
Radar Cross Section
Small (<0.1 m²)

Expand to show TLE details & history
Last TLE update: 2 days ago

TLE from 2 days ago
0 CZ-6A DEB
1 56616U 22151AEQ 25354.24656979  .00000208  00000-0  13465-3 0  9994
2 56616  98.8174 355.7948 0033296  91.9347 268.5639 14.12797866137203
Epoch: 2025-12-20T05:55Z
TLE epoch observation values (Epoch: 2025-12-20T05:55:03.629Z)
Latitude
-0.00004°
Longitude
177.95356°
Altitude
853.398 km
Speed
7.426 km/s
True Right ascension
23h 43m 10s
True Declination
0° 00' 00"
Sunlit
Object was in daylight at epoch
Visualization orbit readout
Latitude
Unknown
Longitude
Unknown
Altitude
Unknown
Speed
Unknown
Apparent Right ascension
Unknown
Apparent Declination
Unknown
Sunlit
N/A
Visualization observer readout
Local Sidereal Time
19:37:16
Azimuth
Unknown
Elevation
Unknown
Doppler factor
Unknown
Orbital elements
Apogee altitude
871.043 km
Perigee altitude
822.93 km
Semi-major axis
7,225.124 km
Eccentricity
0.00333
Inclination
98.8174°
RAAN
355.7948°
Arg. of periapsis
91.9347°
True anomaly
268.18252°
Mean anomaly
268.5639°
Eccentric anomaly
268.3732°
Mean motion
3.53407 °/min
Orbital period
101.87 mins
BSTAR
0.00013465
Loading maneuver chart data...
Computing Atmospheric mass density...
Loading historical data...
Loading historical data...
Loading historical data...
Loading historical data...
Loading historical data...
Loading historical data...
Loading historical data...

Documentation

Showing up to 5 results
|